CAPE
168 415 1296 1357 1476 1522 1485 1225 989 828 809 702 942 1130 1064 1021 1027 983 917 630 328 109 29 40 7 2 0 2 31 34 120 83 133 230 251 201 138 225 313 252 316 351 379
75 392 1205 1399 1494 1584 1509 1312 999 802 773 726 682 821 1191 1221 1035 827 598 352 174 27 34 2 8 0 0 0 0 10 2 0 0 0 0 1 0 0 11 137 203 216 261
140 408 1147 1429 1575 1562 1484 1407 1024 849 870 813 675 700 1039 1024 759 545 378 217 168 60 14 1 0 0 0 0 0 0 0 0 0 0 0 0 2 24 0 0 4 3 5
233 524 1029 1356 1503 1673 1606 1354 1047 906 958 904 671 741 974 939 741 557 367 176 124 79 12 3 0 0 0 0 0 0 0 0 0 0 0 13 38 45 7 0 0 0 0
233 555 921 1199 1467 1552 1692 1384 1067 928 943 934 735 613 538 680 695 598 335 205 104 32 2 1 0 0 0 0 0 0 0 0 0 0 1 11 46 64 0 0 0 0 0
229 527 783 1144 1522 1567 1558 1407 1136 952 925 971 902 732 642 697 481 315 231 153 17 0 0 0 0 0 0 0 0 0 0 0 0 0 0 0 0 41 13 10 11 3 0
159 597 720 1035 1420 1531 1489 1415 1230 1072 1036 1085 922 861 973 714 370 307 264 126 0 0 0 0 0 0 0 0 0 0 0 0 0 0 0 0 0 0 0 0 1 6 3
53 430 619 862 1204 1354 1337 1335 1173 1053 933 1102 929 1028 913 676 417 289 243 105 1 0 1 1 0 0 0 0 0 0 0 0 0 0 0 0 0 0 0 0 0 1 7
98 286 492 669 973 1223 1250 1220 1061 934 855 956 823 954 926 807 484 237 49 9 0 0 0 1 0 0 0 0 0 0 0 0 0 0 0 0 0 0 0 0 0 0 0
0 167 282 464 737 1051 1163 929 666 845 842 857 772 824 855 795 492 179 15 0 0 0 0 0 0 0 0 0 0 0 0 0 0 0 0 0 0 0 0 0 0 0 0
0 0 114 314 558 738 973 796 641 825 881 790 688 701 572 567 379 110 0 0 0 0 0 0 0 0 0 0 0 0 0 0 0 0 0 0 0 0 0 0 0 0 0
0 0 0 19 335 562 717 660 781 852 855 564 366 292 412 424 119 39 1 0 0 0 0 0 0 0 0 0 0 0 0 0 0 0 0 0 0 0 0 0 0 0 0
0 0 0 0 1 326 515 475 529 672 566 413 340 236 200 192 139 8 1 0 0 0 0 0 0 0 0 0 0 0 0 0 0 0 0 0 0 0 0 0 0 0 0
0 0 0 0 0 0 254 406 323 318 404 274 148 253 220 131 45 4 1 0 0 0 0 0 0 0 0 0 0 0 0 0 0 0 0 0 0 0 0 0 0 0 0
0 0 0 0 0 0 0 135 183 147 203 205 194 10 36 20 10 3 2 0 0 0 0 0 0 0 0 0 0 0 0 0 0 0 0 0 0 0 0 0 0 0 0
0 0 0 0 0 0 0 0 31 13 1 7 44 70 45 43 15 3 2 0 0 0 0 0 0 0 0 0 0 0 0 0 0 0 0 0 0 0 0 0 0 1 1
0 0 0 0 0 0 0 0 0 2 1 1 4 16 21 17 22 19 4 0 0 0 0 0 0 0 0 0 0 0 0 0 0 0 0 0 0 0 0 0 0 0 1
0 0 0 0 0 0 0 0 0 1 1 2 2 2 1 1 1 0 0 1 0 0 0 0 0 0 0 0 0 0 0 0 0 0 0 0 0 0 0 0 0 0 2
0 0 0 0 0 0 0 0 0 0 0 0 0 1 4 3 1 1 1 1 1 0 0 0 0 0 0 0 0 0 0 0 0 0 0 0 0 0 0 0 0 0 0
0 0 0 0 0 0 0 0 0 0 0 0 0 0 0 0 2 1 1 0 1 1 0 0 0 0 0 0 0 0 0 0 0 0 0 0 0 0 0 0 0 0 0
0 0 0 0 0 0 0 0 0 0 0 0 0 0 0 0 0 0 0 0 0 0 0 0 0 0 0 0 0 0 0 0 0 0 0 0 0 0 0 0 0 0 0
0 0 0 0 0 0 0 0 0 0 0 0 0 0 0 0 0 0 0 0 0 0 0 0 0 0 0 0 0 0 0 0 0 0 0 0 0 0 0 0 0 0 0
0 0 0 0 0 0 0 0 0 0 0 0 0 0 0 0 0 0 0 0 0 0 0 0 0 0 0 0 0 0 0 0 0 0 0 0 0 0 0 0 0 0 0
0 0 0 0 0 0 0 0 0 0 0 0 0 0 0 0 0 0 0 0 0 0 0 0 0 0 0 0 0 0 0 0 0 0 0 0 0 0 0 0 0 0 0
0 0 0 0 0 0 0 0 0 0 0 0 0 0 0 0 0 0 0 0 0 0 0 0 0 0 0 0 0 0 0 0 0 0 0 0 0 0 0 0 0 0 0
0 0 0 0 0 0 0 0 0 0 0 0 0 0 0 0 0 0 0 0 0 0 0 0 0 0 0 0 0 0 0 0 0 0 0 0 0 0 0 0 0 0 0
CIN
-365 -243 -33 -20 -5 -3 -1 -15 -38 -61 -66 -73 -32 -12 -2 -1 -1 0 0 -6 -28 -73 -111 -114 -167 -65 0 -43 -116 -104 -37 -62 -36 -17 -16 -19 -25 -3 0 -1 -1 0 0
-422 -278 -59 -17 -7 -1 -3 -18 -46 -66 -69 -73 -70 -47 -1 -1 -4 -6 -5 -14 -43 -92 -79 -9 -145 0 0 0 0 -112 -63 0 0 0 0 -7 0 0 -34 -10 -2 -2 0
-393 -306 -96 -30 -7 -6 -9 -15 -48 -62 -58 -59 -68 -59 -13 -4 -8 -16 -20 -37 -36 -75 -100 -1 0 0 0 0 0 0 0 0 0 0 0 0 -14 -43 -4 0 -31 0 -27
-380 -273 -140 -65 -32 -10 -12 -24 -46 -57 -46 -45 -60 -37 -1 -2 -6 -8 -23 -46 -54 -78 -131 0 0 0 0 0 0 0 0 0 0 0 0 -58 -35 -35 -14 0 0 0 0
-410 -277 -173 -96 -41 -27 -14 -32 -56 -60 -47 -38 -51 -50 -40 -10 -2 -4 -33 -46 -85 -133 0 0 0 0 0 0 0 0 0 0 0 0 -38 -84 -40 -29 0 0 0 0 0
-408 -294 -194 -98 -33 -25 -21 -29 -42 -51 -44 -26 -22 -27 -24 -9 -17 -34 -62 -83 -192 0 0 0 0 0 0 0 0 0 0 0 0 0 0 0 0 -58 -1 -2 -3 -4 0
-413 -256 -195 -106 -23 -6 -5 -3 -12 -20 -19 -10 -15 -8 -1 -6 -30 -50 -56 -107 0 0 -1 0 0 0 0 0 0 0 0 0 0 0 0 0 0 0 0 0 -1 -1 -1
-455 -320 -247 -156 -64 -12 -4 -1 -4 -8 -13 -3 -7 -3 -5 -6 -19 -55 -71 -132 -45 0 -1 0 0 0 0 0 0 0 0 0 0 0 0 0 0 0 0 0 0 -3 -7
-469 -346 -267 -197 -108 -47 -23 -4 -5 -7 -14 -9 -13 -4 -2 -3 -17 -80 -169 -229 -11 0 0 -1 0 0 0 0 0 0 0 0 0 0 0 0 0 0 0 0 0 0 0
0 -402 -308 -218 -116 -34 -17 -40 -67 -24 -11 -5 -6 -3 -2 -2 -27 -93 -208 0 0 0 0 0 0 0 0 0 0 0 0 0 0 0 0 0 0 0 0 0 0 0 0
0 0 -389 -265 -161 -88 -21 -46 -66 -21 -9 -9 -11 -6 -17 -20 -38 -110 0 0 0 0 0 0 0 0 0 0 0 0 0 0 0 0 0 0 0 0 0 0 0 0 0
0 0 0 -244 -223 -135 -79 -71 -25 -10 -15 -49 -66 -66 -40 -33 -101 -156 -17 0 0 0 0 0 0 0 0 0 0 0 0 0 0 0 0 0 0 0 0 0 0 0 0
0 0 0 0 -35 -197 -127 -121 -87 -30 -54 -56 -60 -84 -99 -97 -112 -37 -30 0 0 0 0 0 0 0 0 0 0 0 0 0 0 0 0 0 0 0 0 0 0 0 0
0 0 0 0 0 0 -190 -115 -116 -99 -49 -72 -98 -60 -69 -105 -139 -30 -39 0 0 0 0 0 0 0 0 0 0 0 0 0 0 0 0 0 0 0 0 0 0 0 0
0 0 0 0 0 0 0 -176 -117 -100 -53 -49 -62 -66 -90 -60 -30 -38 -38 -9 0 0 0 0 0 0 0 0 0 0 0 0 0 0 0 0 0 0 0 0 0 0 0
0 0 0 0 0 0 0 0 -162 -151 0 -22 -96 -101 -58 -153 -30 -49 -54 -7 0 0 0 0 0 0 0 0 0 0 0 0 0 0 0 0 0 0 0 0 0 0 0
0 0 0 0 0 0 0 0 0 0 -1 0 -15 -17 -22 -26 -27 -33 -58 0 -51 0 0 0 0 0 0 0 0 0 0 0 0 0 0 0 0 0 0 0 0 0 0
0 0 0 0 0 0 0 0 0 0 0 0 0 0 -8 -18 -13 -1 0 -61 0 0 0 0 0 0 0 0 0 0 0 0 0 0 0 0 0 0 0 0 0 0 -1
0 0 0 0 0 0 0 0 0 0 0 0 0 0 0 0 0 0 0 0 0 0 0 0 0 0 0 0 0 0 0 0 0 0 0 0 0 0 0 0 0 0 0
0 0 0 0 0 0 0 0 0 0 0 0 0 0 0 0 0 0 0 0 0 0 0 0 0 0 0 0 0 0 0 0 0 0 0 0 0 0 0 0 0 0 0
0 0 0 0 0 0 0 0 0 0 0 0 0 0 0 0 0 0 0 0 0 0 0 0 0 0 0 0 0 0 0 0 0 0 0 0 0 0 0 0 0 0 0
0 0 0 0 0 0 0 0 0 0 0 0 0 0 0 0 0 0 0 0 0 0 0 0 0 0 0 0 0 0 0 0 0 0 0 0 0 0 0 0 0 0 0
0 0 0 0 0 0 0 0 0 0 0 0 0 0 0 0 0 0 0 0 0 0 0 0 0 0 0 0 0 0 0 0 0 0 0 0 0 0 0 0 0 0 0
0 0 0 0 0 0 0 0 0 0 0 0 0 0 0 0 0 0 0 0 0 0 0 0 0 0 0 0 0 0 0 0 0 0 0 0 0 0 0 0 0 0 0
0 0 0 0 0 0 0 0 0 0 0 0 0 0 0 0 0 0 0 0 0 0 0 0 0 0 0 0 0 0 0 0 0 0 0 0 0 0 0 0 0 0 0
0 0 0 0 0 0 0 0 0 0 0 0 0 0 0 0 0 0 0 0 0 0 0 0 0 0 0 0 0 0 0 0 0 0 0 0 0 0 0 0 0 0 0
Wind_Speed
18 22 23 22 23 22 21 17 10 9 10 11 13 14 14 14 15 15 16 16 17 18 18 17 17 17 17 17 17 16 16 16 16 16 17 17 17 17 17 16 17 16 15
18 21 22 21 21 21 21 21 16 11 10 11 12 13 13 13 14 14 16 17 17 18 18 18 18 17 17 17 17 16 16 15 16 16 16 16 16 16 16 16 16 16 16
19 21 21 20 20 20 19 18 17 17 12 11 12 13 12 13 13 14 16 17 18 17 17 17 17 17 17 16 16 16 16 16 16 16 16 16 16 16 16 16 16 16 16
19 20 20 20 18 17 16 16 16 15 13 13 12 12 12 12 13 14 15 16 17 17 17 17 17 17 17 16 16 16 16 16 16 15 15 15 16 16 16 16 16 16 16
17 18 18 19 18 16 14 13 13 13 12 12 12 11 11 11 12 13 15 16 17 17 17 17 17 17 17 17 17 17 16 16 15 15 15 15 16 16 16 17 16 16 16
16 15 16 17 16 15 15 14 12 10 10 10 10 10 10 11 11 12 14 15 16 18 18 18 18 18 18 18 18 17 16 15 15 15 15 16 16 17 17 16 16 16 17
14 13 13 14 14 13 12 12 11 10 8 7 7 8 8 9 10 12 13 15 16 18 18 18 18 19 19 19 18 17 15 15 15 15 16 16 17 17 17 17 17 17 16
13 12 11 11 11 10 10 9 9 9 9 8 6 5 6 9 11 12 13 14 16 18 18 18 19 19 19 19 18 16 15 14 15 15 16 17 18 18 18 18 17 17 16
12 11 9 8 9 9 7 6 6 6 6 6 5 5 5 7 10 12 13 14 16 17 17 17 19 19 19 18 18 16 15 15 16 16 17 18 19 18 18 18 17 17 17
12 10 8 7 5 5 4 5 4 3 2 2 4 4 4 5 7 9 13 14 15 17 17 17 18 19 19 19 18 17 16 16 17 18 18 19 19 19 19 19 18 18 18
19 14 10 6 4 4 4 2 2 0 4 5 7 10 10 8 9 11 13 15 16 16 17 17 18 18 18 19 19 18 18 18 18 19 20 21 21 20 20 20 20 19 19
28 26 23 12 5 4 3 2 1 3 4 6 9 11 12 11 11 12 13 15 17 16 18 17 18 18 19 19 19 20 20 20 20 20 21 21 21 21 20 21 21 20 20
26 25 26 25 18 7 6 7 8 7 11 10 10 12 15 15 13 14 16 16 16 17 19 18 18 19 20 20 20 21 21 21 21 21 22 22 22 22 21 21 21 20 20
26 26 27 27 26 14 10 10 10 10 11 14 14 12 14 16 15 15 16 17 18 18 19 20 20 20 21 20 21 21 22 22 22 22 22 23 23 23 23 22 21 20 21
28 29 30 29 27 18 9 12 12 14 15 15 16 15 15 16 15 14 16 17 19 19 20 21 22 22 23 23 24 24 24 23 23 23 23 24 24 24 24 23 22 21 21
29 29 29 29 28 20 11 11 12 15 18 18 18 18 18 19 19 18 17 17 18 19 20 20 20 22 24 25 26 25 26 26 25 25 25 25 25 25 25 23 22 21 21
27 27 28 27 26 20 13 11 13 15 17 19 21 23 23 21 19 18 19 20 20 20 21 22 22 22 23 25 27 28 28 28 28 27 27 26 26 26 26 25 24 22 22
25 26 26 25 23 20 15 13 14 17 18 20 22 24 25 25 24 23 22 23 22 21 22 23 23 25 26 26 28 29 29 29 29 29 29 28 28 27 26 26 26 26 24
25 26 25 24 22 19 16 15 16 17 19 21 22 23 24 24 24 24 26 27 27 26 25 24 25 26 28 30 30 30 30 30 30 29 30 30 29 29 28 28 27 27 27
23 23 23 22 21 20 18 17 17 18 19 21 23 24 25 25 25 24 25 26 27 27 28 27 27 27 29 32 33 35 34 33 32 32 31 30 30 30 30 30 29 29 28
22 23 22 22 21 19 18 18 19 20 20 21 22 24 25 25 25 25 25 26 27 26 27 27 28 30 31 32 36 36 35 35 36 36 35 34 33 32 32 31 31 30 30
22 22 22 22 22 21 20 18 17 18 20 21 22 24 25 25 25 26 26 26 26 26 27 28 29 31 31 31 34 37 39 37 33 32 32 33 35 34 34 34 33 33 33
21 21 21 22 22 21 20 18 18 19 20 22 24 25 27 27 27 26 26 26 28 28 28 28 30 31 34 32 31 33 37 38 40 35 37 35 34 34 35 35 35 35 35
19 20 20 21 22 21 20 20 20 20 22 23 24 24 26 27 28 28 28 27 27 28 30 30 31 31 31 34 33 31 33 35 39 44 33 40 40 39 38 37 37 36 36
18 19 20 21 21 22 22 21 21 21 21 22 24 26 27 28 29 30 30 29 29 29 30 31 32 32 32 32 33 34 35 35 35 40 49 39 40 41 42 42 41 40 39
14 16 18 20 21 22 22 22 22 22 23 24 26 28 29 29 31 32 32 32 31 32 32 32 32 32 33 33 34 34 36 37 38 40 44 47 47 41 41 42 43 43 41
Wind_Direction
136 131 132 125 127 122 121 101 52 11 357 1 11 18 23 24 31 33 27 16 8 3 359 349 345 346 348 352 356 358 352 355 355 359 2 4 4 1 358 358 3 359 360
114 124 129 128 129 125 122 122 100 49 10 3 4 10 9 22 26 20 14 6 356 353 351 346 345 347 347 348 348 348 349 348 346 349 352 354 354 352 351 350 353 353 357
108 124 127 126 128 125 123 118 112 108 66 14 6 12 23 19 8 5 4 2 1 353 347 350 348 345 341 338 339 339 343 338 336 343 354 349 350 348 348 345 347 349 348
105 120 128 130 127 126 120 118 118 107 90 76 48 36 34 26 16 16 14 6 2 357 347 345 349 345 335 329 334 334 333 341 343 355 354 348 350 354 354 348 349 347 343
100 117 129 133 132 128 121 114 110 105 101 95 81 60 56 43 34 30 16 3 357 353 351 345 334 334 332 330 332 332 334 343 349 352 351 349 344 350 354 354 354 354 348
88 107 125 135 133 128 129 126 115 104 97 92 83 75 74 74 39 21 8 5 359 349 337 334 329 326 323 321 329 336 338 344 344 343 344 342 345 346 345 353 359 0 349
80 91 110 129 133 130 128 127 125 119 103 86 75 71 51 30 18 2 2 355 350 343 332 331 330 330 325 323 327 331 340 343 343 340 338 336 334 337 338 335 342 341 348
78 88 98 124 133 134 129 130 129 130 128 117 94 66 29 4 357 359 355 349 345 338 333 330 331 329 329 330 332 336 341 344 341 338 333 329 327 329 329 327 332 333 336
65 76 79 99 129 139 138 132 127 130 128 124 100 83 46 7 348 345 346 343 337 339 338 338 333 330 328 330 332 336 338 339 337 333 329 324 320 325 328 328 330 331 335
37 55 72 76 100 124 129 150 144 126 104 59 16 24 20 16 3 353 339 336 335 335 335 335 332 331 330 328 329 332 334 334 330 327 323 322 321 325 326 327 328 329 328
341 359 14 42 74 112 142 132 151 160 335 333 331 329 332 338 339 338 335 332 331 333 332 333 332 330 330 327 327 327 327 326 325 322 319 317 319 322 322 322 320 321 323
304 306 320 343 3 9 7 354 313 321 322 321 319 317 319 322 323 327 328 327 328 330 330 332 329 329 324 322 322 322 322 322 321 319 318 318 318 319 320 319 317 317 319
324 317 310 308 320 331 332 331 327 322 319 318 314 312 309 312 315 315 316 319 324 325 325 327 327 327 323 321 319 318 319 319 318 318 318 317 317 317 318 318 317 319 321
322 321 315 311 307 320 320 319 320 321 317 311 314 312 310 309 309 309 310 311 313 316 317 319 320 320 318 318 318 317 317 317 318 317 317 316 315 314 314 316 318 318 318
322 318 315 314 315 318 312 315 318 319 319 317 312 312 310 308 307 308 307 307 308 311 311 313 311 311 312 311 310 310 310 312 314 316 317 317 317 316 315 314 316 317 318
324 322 320 321 319 324 316 313 318 319 318 319 319 315 310 307 304 302 303 304 306 305 307 310 312 310 308 308 306 306 305 306 307 308 310 311 313 314 314 315 316 317 317
332 329 330 329 331 339 336 328 325 323 324 322 316 311 310 308 307 303 303 304 305 303 304 306 306 308 308 308 305 304 303 302 302 303 304 307 308 309 310 311 312 314 314
341 341 341 341 342 349 354 350 339 333 332 329 327 321 316 311 307 303 302 304 306 304 304 304 301 301 303 305 305 304 302 302 301 301 301 302 303 304 306 307 307 308 308
348 348 351 354 359 5 8 5 359 352 344 338 334 332 329 327 320 313 309 307 306 304 304 303 303 301 302 301 302 302 302 300 300 300 299 299 300 301 302 302 303 304 303
358 0 4 7 10 14 17 14 8 1 353 349 344 339 335 331 328 324 321 319 315 310 308 307 304 304 303 302 302 298 298 298 298 298 297 297 297 297 298 298 299 300 300
10 13 14 15 12 13 11 7 2 358 356 355 352 349 345 341 338 334 329 325 321 320 317 314 309 305 303 306 300 300 299 298 296 294 294 294 293 294 294 295 295 297 297
7 9 11 12 15 18 20 17 12 6 4 0 355 353 351 347 342 339 336 332 331 324 321 318 314 308 307 308 304 302 297 297 298 300 299 296 293 292 291 292 292 293 293
7 7 9 11 12 17 17 20 15 10 2 355 352 350 351 349 346 344 341 337 331 328 323 321 318 313 308 309 308 303 299 295 297 296 294 297 296 296 293 291 290 289 290
9 9 9 8 7 6 12 11 8 3 358 354 355 353 353 354 351 349 346 342 338 333 328 324 323 318 313 309 309 306 302 300 297 294 296 294 293 291 291 291 290 290 289
7 7 7 6 4 1 4 6 3 0 357 351 347 345 344 345 346 345 344 344 341 337 333 328 324 322 319 313 311 308 305 303 300 295 291 295 296 291 289 289 289 289 289
8 5 3 2 1 1 1 1 0 358 351 348 344 342 340 339 337 336 336 335 335 333 331 329 328 326 321 317 313 309 305 302 301 299 296 294 292 295 294 290 287 286 287